N2PUI Weather Reports


time (UTC)temp
C
wind
direction
speed
KPH
gust
KPH
rain 1hr
cm
rain 24hr
cm
rain mn
cm
humidity
%
barometer
mb
20260906231218 17 105 1.6 1.6 0.00 0.00 0.00 72 1018.4
20260906230717 18 134 0.0 0.0 0.00 0.00 0.00 71 1018.5
20260906230212 18 133 0.0 1.6 0.00 0.00 0.00 68 1018.4
20260906225711 19 104 1.6 1.6 0.00 0.00 0.00 67 1018.5
20260906225207 20 94 1.6 1.6 0.00 0.00 0.00 65 1018.4
20260906224702 20 118 1.6 1.6 0.00 0.00 0.00 62 1018.4
20260906224158 20 48 3.2 4.8 0.00 0.00 0.00 62 1018.4
20260906223655 20 125 3.2 3.2 0.00 0.00 0.00 61 1018.5
20260906223155 20 330 6.4 8.0 0.00 0.00 0.00 60 1018.4
20260906222653 21 4 1.6 3.2 0.00 0.00 0.00 59 1018.5
20260906222152 21 18 3.2 4.8 0.00 0.00 0.00 59 1018.2
20260906221650 21 16 6.4 8.0 0.00 0.00 0.00 58 1018.2
20260906221145 21 90 3.2 3.2 0.00 0.00 0.00 57 1018.2
20260906220640 21 304 4.8 4.8 0.00 0.00 0.00 57 1018.2
20260906220136 21 57 4.8 8.0 0.00 0.00 0.00 57 1018.1
20260906215635 21 325 4.8 8.0 0.00 0.00 0.00 56 1018.2
20260906215133 22 296 11.3 14.5 0.00 0.00 0.00 55 1017.9
20260906214632 21 188 1.6 1.6 0.00 0.00 0.00 55 1017.9
20260906214127 21 15 4.8 4.8 0.00 0.00 0.00 55 1018.3
20260906213626 22 17 8.0 9.7 0.00 0.00 0.00 55 1018.3
20260906213120 22 356 6.4 9.7 0.00 0.00 0.00 54 1018.2
20260906212618 22 54 3.2 3.2 0.00 0.00 0.00 55 1018.2
20260906212114 22 324 8.0 11.3 0.00 0.00 0.00 54 1018.3
20260906211613 21 143 1.6 1.6 0.00 0.00 0.00 56 1018.1
20260906211109 21 194 1.6 1.6 0.00 0.00 0.00 58 1018.0
20260906210605 21 173 0.0 1.6 0.00 0.00 0.00 58 1018.1
20260906210059 22 54 4.8 4.8 0.00 0.00 0.00 56 1018.2
20260906205554 23 261 4.8 8.0 0.00 0.00 0.00 56 1017.9
20260906205051 22 316 6.4 8.0 0.00 0.00 0.00 54 1018.1
20260906204550 21 191 1.6 1.6 0.00 0.00 0.00 55 1018.1
20260906204045 21 74 4.8 4.8 0.00 0.00 0.00 59 1018.0
20260906203544 21 346 4.8 8.0 0.00 0.00 0.00 58 1017.9
20260906203039 22 53 3.2 3.2 0.00 0.00 0.00 56 1017.8
20260906202536 23 29 8.0 12.9 0.00 0.00 0.00 54 1017.9
20260906202031 23 194 1.6 1.6 0.00 0.00 0.00 54 1017.9
20260906201531 23 271 11.3 11.3 0.00 0.00 0.00 54 1017.9
20260906201030 23 235 8.0 11.3 0.00 0.00 0.00 55 1017.8
20260906200526 23 150 1.6 1.6 0.00 0.00 0.00 56 1017.8
20260906200022 22 223 1.6 3.2 0.00 0.00 0.00 56 1017.8
20260906195517 21 224 3.2 3.2 0.00 0.00 0.00 57 1017.9
20260906195014 21 296 3.2 4.8 0.00 0.00 0.00 59 1017.8
20260906194509 22 314 4.8 8.0 0.00 0.00 0.00 57 1018.0
20260906194004 22 354 4.8 4.8 0.00 0.00 0.00 56 1017.7
20260906193459 23 261 11.3 12.9 0.00 0.00 0.00 53 1017.5
20260906192954 23 197 1.6 3.2 0.00 0.00 0.00 55 1017.9
20260906192449 22 233 4.8 8.0 0.00 0.00 0.00 55 1017.9
20260906191948 22 194 3.2 4.8 0.00 0.00 0.00 55 1017.8
20260906191443 22 112 4.8 4.8 0.00 0.00 0.00 54 1017.8
20260906190942 22 2 11.3 12.9 0.00 0.00 0.00 53 1017.5
20260906190441 22 275 8.0 11.3 0.00 0.00 0.00 55 1017.6
20260906185936 22 91 1.6 3.2 0.00 0.00 0.00 59 1018.1
20260906185435 21 203 3.2 3.2 0.00 0.00 0.00 58 1018.0
20260906184934 21 321 8.0 12.9 0.00 0.00 0.00 57 1017.8
20260906184430 22 116 3.2 4.8 0.00 0.00 0.00 57 1017.8
20260906183925 22 71 9.7 11.3 0.00 0.00 0.00 57 1017.9
20260906183422 21 25 4.8 4.8 0.00 0.00 0.00 59 1018.3
20260906182917 22 27 4.8 9.7 0.00 0.00 0.00 58 1018.1
20260906182412 23 178 1.6 1.6 0.00 0.00 0.00 54 1018.1
20260906181908 23 29 4.8 4.8 0.00 0.00 0.00 58 1018.0
20260906181404 22 125 3.2 3.2 0.00 0.00 0.00 57 1017.9
20260906180859 22 27 4.8 8.0 0.00 0.00 0.00 57 1017.8
20260906180354 22 191 1.6 1.6 0.00 0.00 0.00 56 1017.9
20260906175851 22 216 4.8 4.8 0.00 0.00 0.00 56 1017.9
20260906175346 22 233 4.8 4.8 0.00 0.00 0.00 56 1017.9
20260906174845 22 85 1.6 3.2 0.00 0.00 0.00 57 1018.0
20260906174345 21 183 0.0 1.6 0.00 0.00 0.00 60 1017.6
20260906173840 21 251 1.6 3.2 0.00 0.00 0.00 60 1017.9
20260906173336 21 329 4.8 4.8 0.00 0.00 0.00 61 1018.0
20260906172834 21 323 6.4 9.7 0.00 0.00 0.00 58 1017.9
20260906172331 21 59 3.2 4.8 0.00 0.00 0.00 61 1018.0
20260906171826 22 277 1.6 3.2 0.00 0.00 0.00 60 1018.0
20260906171321 22 354 4.8 4.8 0.00 0.00 0.00 61 1018.1
20260906170816 23 141 0.0 1.6 0.00 0.00 0.00 60 1018.2
20260906170312 22 150 1.6 1.6 0.00 0.00 0.00 59 1018.1
20260906165808 21 194 1.6 3.2 0.00 0.00 0.00 61 1018.2
20260906165308 22 246 11.3 14.5 0.00 0.00 0.00 59 1018.0
20260906164802 21 80 3.2 3.2 0.00 0.00 0.00 62 1018.1
20260906164256 21 206 3.2 3.2 0.00 0.00 0.00 63 1018.1
20260906163752 22 126 0.0 1.6 0.00 0.00 0.00 61 1018.3
20260906163249 22 192 1.6 1.6 0.00 0.00 0.00 60 1018.2
20260906162746 22 203 1.6 1.6 0.00 0.00 0.00 61 1018.4
20260906162240 21 95 1.6 3.2 0.00 0.00 0.00 61 1018.1
20260906161740 21 26 8.0 9.7 0.00 0.00 0.00 62 1018.4
20260906161239 22 104 6.4 9.7 0.00 0.00 0.00 59 1018.3
20260906160738 23 211 3.2 3.2 0.00 0.00 0.00 58 1018.4
20260906160238 22 136 0.0 1.6 0.00 0.00 0.00 63 1018.2
20260906155735 22 265 3.2 3.2 0.00 0.00 0.00 60 1018.4
20260906155231 22 196 1.6 3.2 0.00 0.00 0.00 63 1018.3
20260906154726 22 251 8.0 9.7 0.00 0.00 0.00 63 1018.3
20260906154221 22 266 3.2 3.2 0.00 0.00 0.00 66 1018.4
20260906153719 22 200 3.2 4.8 0.00 0.00 0.00 64 1018.1
20260906153214 21 285 6.4 8.0 0.00 0.00 0.00 64 1018.4
20260906152709 21 317 4.8 8.0 0.00 0.00 0.00 65 1018.4
20260906152203 21 54 3.2 3.2 0.00 0.00 0.00 69 1018.1
20260906151658 21 79 3.2 3.2 0.00 0.00 0.00 68 1018.1
20260906151153 21 228 4.8 8.0 0.00 0.00 0.00 70 1018.2
20260906150649 21 187 3.2 3.2 0.00 0.00 0.00 71 1018.4
20260906150144 20 194 4.8 4.8 0.00 0.00 0.00 74 1018.1
20260906145643 19 289 4.8 8.0 0.00 0.00 0.00 76 1018.3
20260906145137 19 314 6.4 8.0 0.00 0.00 0.00 77 1018.2
20260906144632 19 281 4.8 4.8 0.00 0.00 0.00 77 1018.3
20260906144127 19 231 9.7 11.3 0.00 0.00 0.00 77 1018.3
20260906143626 19 233 1.6 3.2 0.00 0.00 0.00 77 1018.2
20260906143124 19 236 3.2 3.2 0.00 0.00 0.00 78 1018.2
20260906142623 19 20 3.2 3.2 0.00 0.00 0.00 78 1018.0
20260906142118 18 233 4.8 4.8 0.00 0.00 0.00 78 1018.2
20260906141617 18 220 4.8 8.0 0.00 0.00 0.00 79 1018.2
20260906141113 18 274 6.4 8.0 0.00 0.00 0.00 80 1018.0
20260906140611 18 272 4.8 8.0 0.00 0.00 0.00 81 1018.2
20260906140107 18 277 6.4 9.7 0.00 0.00 0.00 84 1018.3
20260906135603 18 171 0.0 1.6 0.00 0.00 0.00 85 1018.1
20260906135100 17 304 3.2 4.8 0.00 0.00 0.00 85 1018.4
20260906134555 18 235 3.2 3.2 0.00 0.00 0.00 85 1018.3
20260906134055 18 286 6.4 8.0 0.00 0.00 0.00 84 1018.2
20260906133550 18 291 4.8 4.8 0.00 0.00 0.00 84 1018.3
20260906133046 17 312 4.8 4.8 0.00 0.00 0.00 88 1018.1
20260906132541 17 25 4.8 8.0 0.00 0.00 0.00 89 1018.3
20260906132036 17 15 3.2 4.8 0.00 0.00 0.00 91 1018.3
20260906131532 16 226 4.8 4.8 0.00 0.00 0.00 92 1018.2
20260906131027 16 173 0.0 1.6 0.00 0.00 0.00 93 1018.0
20260906130526 16 197 1.6 1.6 0.00 0.00 0.00 94 1018.2
20260906130021 16 187 3.2 3.2 0.00 0.00 0.00 95 1017.9
20260906125519 16 151 0.0 0.0 0.00 0.00 0.00 95 1018.2
20260906125013 16 168 0.0 0.0 0.00 0.00 0.00 95 1018.2
20260906124509 15 189 3.2 3.2 0.00 0.00 0.00 95 1018.0
20260906124003 15 79 1.6 3.2 0.00 0.00 0.00 95 1018.0
20260906123456 15 161 0.0 0.0 0.00 0.00 0.00 95 1018.0
20260906122951 15 132 1.6 1.6 0.00 0.00 0.00 95 1017.9
20260906122446 15 171 0.0 0.0 0.00 0.00 0.00 95 1017.7
20260906121942 15 175 0.0 1.6 0.00 0.00 0.00 95 1017.7
20260906121438 15 196 0.0 1.6 0.00 0.00 0.00 95 1017.9
20260906120934 15 180 0.0 0.0 0.00 0.00 0.00 95 1017.8
20260906120430 15 184 1.6 3.2 0.00 0.00 0.00 95 1017.7
20260906115926 15 214 0.0 1.6 0.00 0.00 0.00 95 1017.7
20260906115421 15 202 0.0 0.0 0.00 0.00 0.00 95 1017.6
20260906114921 15 177 0.0 0.0 0.00 0.00 0.00 95 1017.7
20260906114415 15 151 0.0 0.0 0.00 0.00 0.00 95 1017.7
20260906113911 15 152 0.0 0.0 0.00 0.00 0.00 95 1017.7
20260906113409 15 148 0.0 0.0 0.00 0.00 0.00 95 1017.5
20260906112905 15 184 0.0 0.0 0.00 0.00 0.00 95 1017.5
20260906112401 15 184 0.0 0.0 0.00 0.00 0.00 95 1017.6
20260906111856 15 184 0.0 0.0 0.00 0.00 0.00 95 1017.4
20260906111356 15 184 0.0 0.0 0.00 0.00 0.00 95 1017.3
20260906110850 15 184 0.0 0.0 0.00 0.00 0.00 95 1017.4
20260906110346 14 184 0.0 0.0 0.00 0.00 0.00 95 1017.1
20260906105845 14 184 0.0 0.0 0.00 0.00 0.00 95 1017.3
20260906105341 14 184 0.0 0.0 0.00 0.00 0.00 95 1017.2
20260906104837 14 184 0.0 0.0 0.00 0.00 0.00 95 1017.2
20260906104335 14 184 0.0 0.0 0.00 0.00 0.00 95 1017.0
20260906103834 14 184 0.0 0.0 0.00 0.00 0.00 95 1017.1
20260906103332 14 183 0.0 0.0 0.00 0.00 0.00 95 1016.9
20260906102829 14 183 0.0 0.0 0.00 0.00 0.00 95 1017.0
20260906102327 14 182 0.0 0.0 0.00 0.00 0.00 95 1017.0
20260906101823 14 180 0.0 0.0 0.00 0.00 0.00 95 1016.9
20260906101318 14 179 0.0 0.0 0.00 0.00 0.00 95 1016.8
20260906100813 14 176 0.0 0.0 0.00 0.00 0.00 95 1017.0
20260906100312 14 172 0.0 0.0 0.00 0.00 0.00 95 1016.8
20260906095808 14 178 0.0 0.0 0.00 0.00 0.00 95 1016.8
20260906095306 14 183 0.0 0.0 0.00 0.00 0.00 95 1016.4
20260906094802 14 183 0.0 0.0 0.00 0.00 0.00 95 1016.5
20260906094257 14 185 0.0 0.0 0.00 0.00 0.00 95 1016.5
20260906093754 14 180 0.0 0.0 0.00 0.00 0.00 95 1016.2
20260906093249 13 187 0.0 0.0 0.00 0.00 0.00 95 1016.3
20260906092743 13 186 1.6 1.6 0.00 0.00 0.00 95 1016.3
20260906092238 13 186 0.0 0.0 0.00 0.00 0.00 95 1016.2
20260906091734 13 182 0.0 0.0 0.00 0.00 0.00 95 1016.1
20260906091230 13 184 0.0 0.0 0.00 0.00 0.00 95 1016.3
20260906090727 13 182 0.0 0.0 0.00 0.00 0.00 95 1016.0
20260906090225 13 193 1.6 1.6 0.00 0.00 0.00 95 1016.0
20260906085724 13 182 0.0 0.0 0.00 0.00 0.00 95 1016.1
20260906085223 13 185 0.0 0.0 0.00 0.00 0.00 95 1015.9
20260906084718 14 187 0.0 0.0 0.00 0.00 0.00 95 1016.0
20260906084212 14 194 0.0 0.0 0.00 0.00 0.00 95 1015.9
20260906083708 13 191 0.0 0.0 0.00 0.00 0.00 95 1015.9
20260906083158 13 179 0.0 0.0 0.00 0.00 0.00 95 1015.7
20260906082652 13 160 0.0 0.0 0.00 0.00 0.00 95 1015.7
20260906082148 13 165 0.0 0.0 0.00 0.00 0.00 95 1015.6
20260906081643 13 165 0.0 0.0 0.00 0.00 0.00 95 1015.5
20260906081138 13 166 0.0 0.0 0.00 0.00 0.00 95 1015.6
20260906080635 13 166 0.0 0.0 0.00 0.00 0.00 95 1015.4
20260906080130 13 166 0.0 0.0 0.00 0.00 0.00 95 1015.5
20260906075625 13 166 0.0 0.0 0.00 0.00 0.00 95 1015.5
20260906075119 13 166 0.0 0.0 0.00 0.00 0.00 95 1015.4
20260906074615 13 166 0.0 0.0 0.00 0.00 0.00 95 1015.7
20260906074113 13 166 0.0 0.0 0.00 0.00 0.00 95 1015.5
20260906073608 13 166 0.0 0.0 0.00 0.00 0.00 95 1015.6
20260906073104 13 166 0.0 0.0 0.00 0.00 0.00 95 1015.6
20260906072559 13 166 0.0 0.0 0.00 0.00 0.00 95 1015.5
20260906072055 13 166 0.0 0.0 0.00 0.00 0.00 95 1015.5
20260906071551 13 166 0.0 0.0 0.00 0.00 0.00 95 1015.7
20260906071045 13 165 0.0 0.0 0.00 0.00 0.00 95 1015.8
20260906070542 13 166 0.0 0.0 0.00 0.00 0.00 95 1015.9
20260906070037 13 165 0.0 0.0 0.00 0.00 0.00 95 1015.6
20260906065536 13 165 0.0 0.0 0.00 0.00 0.00 95 1015.6
20260906065033 13 166 0.0 0.0 0.00 0.00 0.00 95 1015.6
20260906064528 13 166 0.0 0.0 0.00 0.00 0.00 95 1015.6
20260906064023 13 166 0.0 0.0 0.00 0.00 0.00 95 1015.4
20260906063519 13 172 0.0 0.0 0.00 0.00 0.00 95 1015.8
20260906063015 13 172 0.0 0.0 0.00 0.00 0.00 95 1015.7
20260906062509 13 173 0.0 0.0 0.00 0.00 0.00 95 1015.8
20260906062004 13 173 0.0 0.0 0.00 0.00 0.00 95 1015.9
20260906061459 13 172 0.0 0.0 0.00 0.00 0.00 95 1015.7
20260906060954 13 172 0.0 0.0 0.00 0.00 0.00 95 1016.0
20260906060451 13 173 0.0 0.0 0.00 0.00 0.00 95 1015.9
20260906055947 13 173 0.0 0.0 0.00 0.00 0.00 95 1015.9
20260906055443 13 173 0.0 0.0 0.00 0.00 0.00 95 1015.8
20260906054938 13 173 0.0 0.0 0.00 0.00 0.00 95 1016.0
20260906054433 13 173 0.0 0.0 0.00 0.00 0.00 95 1015.9
20260906053928 13 173 0.0 0.0 0.00 0.00 0.00 95 1015.8
20260906053424 13 173 0.0 0.0 0.00 0.00 0.00 95 1016.0
20260906052920 13 172 0.0 0.0 0.00 0.00 0.00 95 1015.9
20260906052416 13 173 0.0 0.0 0.00 0.00 0.00 95 1015.9
20260906051913 13 172 0.0 0.0 0.00 0.00 0.00 95 1015.7
20260906051413 13 154 0.0 0.0 0.00 0.00 0.00 95 1016.0
20260906050908 13 153 0.0 0.0 0.00 0.00 0.00 95 1016.2
20260906050403 13 153 0.0 0.0 0.00 0.00 0.00 95 1015.9
20260906045902 13 154 0.0 0.0 0.00 0.00 0.00 95 1015.7
20260906045401 13 154 0.0 0.0 0.00 0.00 0.00 95 1016.0
20260906044857 13 153 0.0 0.0 0.00 0.00 0.00 95 1015.8
20260906044352 13 153 0.0 0.0 0.00 0.00 0.00 95 1015.5
20260906043848 13 155 0.0 0.0 0.00 0.00 0.00 95 1015.9
20260906043343 13 155 0.0 0.0 0.00 0.00 0.00 95 1016.0
20260906042838 13 155 0.0 0.0 0.00 0.00 0.00 95 1015.8
20260906042337 13 156 0.0 0.0 0.00 0.00 0.00 95 1015.9
20260906041833 13 155 0.0 0.0 0.00 0.00 0.00 95 1015.9
20260906041329 13 155 0.0 0.0 0.00 0.00 0.00 95 1015.8
20260906040828 13 155 0.0 0.0 0.00 0.00 0.00 95 1015.7
20260906040324 14 157 0.0 0.0 0.00 0.00 0.00 95 1015.9
20260906035819 13 156 0.0 0.0 0.00 0.00 0.00 95 1016.1
20260906035314 14 155 0.0 0.0 0.00 0.00 0.00 95 1015.8
20260906034809 14 159 0.0 0.0 0.00 0.00 0.00 95 1015.7
20260906034304 14 180 0.0 0.0 0.00 0.00 0.00 95 1015.9
20260906033800 15 182 0.0 0.0 0.00 0.00 0.00 95 1015.9
20260906033259 15 165 0.0 0.0 0.00 0.00 0.00 95 1015.7
20260906032756 15 185 0.0 0.0 0.00 0.00 0.00 95 1015.6
20260906032256 15 189 0.0 0.0 0.00 0.00 0.00 95 1015.7
20260906031751 15 193 0.0 0.0 0.00 0.00 0.00 95 1015.8
20260906031247 15 191 0.0 0.0 0.00 0.00 0.00 95 1015.7
20260906030741 15 191 0.0 0.0 0.00 0.00 0.00 95 1015.6
20260906030236 15 190 0.0 0.0 0.00 0.00 0.00 95 1015.6
20260906025735 15 188 0.0 0.0 0.00 0.00 0.00 95 1015.7
20260906025235 15 189 0.0 0.0 0.00 0.00 0.00 95 1015.6
20260906024734 15 190 0.0 0.0 0.00 0.00 0.00 94 1015.8
20260906024228 15 191 0.0 0.0 0.00 0.00 0.00 94 1015.4
20260906023724 15 189 0.0 0.0 0.00 0.00 0.00 94 1015.5
20260906023219 15 189 0.0 0.0 0.00 0.00 0.00 94 1015.5
20260906022715 15 189 0.0 0.0 0.00 0.00 0.00 94 1015.5
20260906022210 15 189 0.0 0.0 0.00 0.00 0.00 93 1015.7
20260906021705 15 189 0.0 0.0 0.00 0.00 0.00 93 1015.5
20260906021203 15 189 0.0 0.0 0.00 0.00 0.00 93 1015.3
20260906020658 15 188 0.0 0.0 0.00 0.00 0.00 93 1015.5
20260906020148 15 186 0.0 0.0 0.00 0.00 0.00 93 1015.3
20260906015642 15 182 0.0 0.0 0.00 0.00 0.00 92 1015.4
20260906015140 16 181 0.0 0.0 0.00 0.00 0.00 92 1015.3
20260906014635 16 175 1.6 1.6 0.00 0.00 0.00 92 1015.5
20260906014131 16 189 0.0 0.0 0.00 0.00 0.00 92 1015.3
20260906013627 16 152 0.0 0.0 0.00 0.00 0.00 92 1015.2
20260906013122 16 149 1.6 1.6 0.00 0.00 0.00 92 1015.1
20260906012617 16 155 0.0 0.0 0.00 0.00 0.00 91 1015.1
20260906012117 16 148 0.0 1.6 0.00 0.00 0.00 91 1015.1
20260906011612 16 134 0.0 0.0 0.00 0.00 0.00 91 1015.3
20260906011107 16 157 0.0 0.0 0.00 0.00 0.00 91 1015.2
20260906010603 16 150 0.0 0.0 0.00 0.00 0.00 90 1015.1
20260906010059 16 134 0.0 1.6 0.00 0.00 0.00 90 1015.1
20260906005558 16 118 1.6 1.6 0.00 0.00 0.00 90 1015.0
20260906005056 16 187 0.0 0.0 0.00 0.00 0.00 89 1015.0
20260906004551 16 168 0.0 1.6 0.00 0.00 0.00 89 1014.9
20260906004045 17 191 0.0 0.0 0.00 0.00 0.00 89 1014.8
20260906003540 17 190 0.0 0.0 0.00 0.00 0.00 88 1014.8
20260906003036 17 193 1.6 1.6 0.00 0.00 0.00 88 1014.7
20260906002531 17 153 1.6 1.6 0.00 0.00 0.00 87 1014.6
20260906002025 17 139 1.6 1.6 0.00 0.00 0.00 87 1015.0
20260906001521 17 197 0.0 0.0 0.00 0.00 0.00 86 1014.8
20260906001016 17 197 0.0 0.0 0.00 0.00 0.00 86 1014.7
20260906000512 18 197 0.0 0.0 0.00 0.00 0.00 85 1014.6
20260906000006 18 196 0.0 0.0 0.00 0.00 0.00 84 1014.6
20260905235500 18 196 0.0 0.0 0.00 0.00 0.00 84 1014.7
20260905234955 18 196 0.0 0.0 0.00 0.00 0.00 83 1014.7
20260905234451 18 196 0.0 0.0 0.00 0.00 0.00 82 1014.7
20260905233950 18 196 0.0 0.0 0.00 0.00 0.00 82 1014.7
20260905233446 19 195 0.0 0.0 0.00 0.00 0.00 81 1014.5
20260905232945 19 195 0.0 0.0 0.00 0.00 0.00 80 1014.7
20260905232441 19 146 0.0 0.0 0.00 0.00 0.00 79 1014.7
20260905231937 19 131 1.6 1.6 0.00 0.00 0.00 79 1014.7
20260905231432 20 144 1.6 1.6 0.00 0.00 0.00 78 1014.7